This is the latest recevied weather packets stored in our database for station/object IZ1UQG-1. If no packets are shown the sender has not sent any weather packets the latest 10 day(s).
| Time | Temp. | Humidity | Pressure | Rain* | Wind** | Luminosity | Snow |
|---|---|---|---|---|---|---|---|
| 1777822439 | 27.22° C | 33% | 1015.5 hPa | 71.37 mm | - | - | - |
| 1777822139 | 27.22° C | 34% | 1015.5 hPa | 66.8 mm | - | - | - |
| 1777821839 | 27.22° C | 33% | 1015.5 hPa | 68.83 mm | - | - | - |
| 1777821539 | 26.67° C | 33% | 1015.6 hPa | 59.94 mm | - | - | - |
| 1777821239 | 27.22° C | 32% | 1015.6 hPa | 73.41 mm | - | - | - |
| 1777820939 | 27.22° C | 32% | 1015.5 hPa | 67.82 mm | - | - | - |
| 1777820639 | 27.22° C | 32% | 1015.8 hPa | 69.85 mm | - | - | - |
| 1777820339 | 27.78° C | 31% | 1015.7 hPa | 56.9 mm | - | - | - |
| 1777820039 | 27.78° C | 31% | 1015.7 hPa | 71.88 mm | - | - | - |
| 1777819739 | 27.78° C | 31% | 1015.7 hPa | 73.91 mm | - | - | - |
| 1777819439 | 27.78° C | 31% | 1016 hPa | 72.9 mm | - | - | - |
| 1777819139 | 27.78° C | 33% | 1016 hPa | 73.41 mm | - | - | - |
| 1777818839 | 27.78° C | 33% | 1016 hPa | 83.31 mm | - | - | - |
| 1777818539 | 27.78° C | 33% | 1016 hPa | 84.84 mm | - | - | - |
| 1777818239 | 27.78° C | 33% | 1015.9 hPa | 90.42 mm | - | - | - |
| 1777817939 | 27.78° C | 33% | 1016.1 hPa | 88.39 mm | - | - | - |
| 1777817639 | 27.78° C | 31% | 1016 hPa | 94.74 mm | - | - | - |
| 1777817339 | 27.78° C | 33% | 1016.2 hPa | 89.41 mm | - | - | - |
| 1777817039 | 27.22° C | 32% | 1016 hPa | 92.71 mm | - | - | - |
| 1777816739 | 27.22° C | 32% | 1016.2 hPa | 91.95 mm | - | - | - |
| 1777816439 | 27.78° C | 32% | 1016.2 hPa | 95.25 mm | - | - | - |
| 1777816139 | 27.78° C | 33% | 1016.2 hPa | 96.27 mm | - | - | - |
| 1777815839 | 27.78° C | 33% | 1016.3 hPa | 90.42 mm | - | - | - |
| 1777815539 | 27.78° C | 32% | 1016.3 hPa | 86.36 mm | - | - | - |
| 1777815239 | 27.78° C | 32% | 1016.3 hPa | 98.81 mm | - | - | - |
* Rain latest hour (hover to see other rain measurements)
** Current wind speed in m/s (hover to see current wind gust speed)